Content
SEND FEEDBACK

Daily
Averages
Monthly
Summary
United States of America

ST. LOUIS - SAINT LOUIS UNIVERSITY, MISSOURI


Home > North America > United States > Missouri
Elevation: 580 feet     Latitude: 38 38N     Longitude: 090 14W

WEATHER
 
SELECT A DAY
Number of Records: 188,419;   Date Range: 1/1/95 - 9/29/14
 
SHARE

PRINT THIS DATA

[ ← Previous Day ]
WEATHER ALMANAC - FEBRUARY 13, 2013
[ Next Day → ]
[ °C ]   °F
Weather ElementAverageHighLow
Temperature44 °F53.1 °F (2:53 pm)37 °F (6:53 am)
Dewpoint28.7 °F30.9 °F (2:53 am)25 °F (3:53 pm)
Humidity57.1 %76 % (2:53 am)34 % (3:53 pm)
Barometer29.87 in29.93 in (1:53 am)29.81 in (2:53 pm)
Wind Speed5.3 mph13.8 mph (12:53 pm)
Wind Gust19.6 mph (1:53 pm)
Weather ElementAverage
Visibility10 mi
Wind DirectionSSW (185.9 °)

Weather ElementTotal
Precipitation---
Heating Degree Days20 (Base 65)
Averaged from 22 records on February 13, 2013
WEATHER CONDITIONS BREAKOUT
WIND DIRECTION BREAKOUT
WEATHER BY HOUR - FEBRUARY 13, 2013
[ °C ]   °F
Local TimeTemperatureDewpointHumidityBarometerVisibilityWind DirectionWind SpeedGust SpeedPrecipitationEventsConditions
1:53 AM39.0 °F30.0 °F70 %29.93 in10.0 miCalmOvercast
2:53 AM37.9 °F30.9 °F76 %29.92 in10.0 miNorth (360°)3.5 mphOvercast
3:53 AM37.9 °F30.9 °F76 %29.90 in10.0 miCalmOvercast
4:53 AM37.9 °F30.0 °F73 %29.88 in10.0 miCalmOvercast
5:53 AM37.9 °F28.9 °F70 %29.88 in10.0 miCalmOvercast
6:53 AM37.0 °F28.0 °F70 %29.90 in10.0 miCalmScattered Clouds
7:53 AM37.9 °F30.0 °F73 %29.92 in10.0 miWSW (250°)3.5 mphScattered Clouds
8:53 AM37.9 °F30.0 °F73 %29.91 in10.0 miWSW (240°)3.5 mphClear
9:53 AM42.1 °F30.0 °F62 %29.91 in10.0 miSW (220°)6.9 mphClear
10:53 AM45.0 °F28.9 °F53 %29.89 in10.0 miSW (230°)8.1 mphClear
11:53 AM48.9 °F28.0 °F44 %29.88 in10.0 miWest (270°)5.8 mphClear
12:53 PM51.1 °F26.1 °F38 %29.84 in10.0 miWest (270°)13.8 mphClear
1:53 PM52.0 °F27.0 °F38 %29.83 in10.0 miWSW (250°)11.5 mph19.6 mphPartly Cloudy
2:53 PM53.1 °F27.0 °F37 %29.81 in10.0 miSW (230°)6.9 mph17.3 mphPartly Cloudy
3:53 PM53.1 °F25.0 °F34 %29.82 in10.0 miWest (270°)13.8 mph19.6 mphClear
4:53 PM52.0 °F27.0 °F38 %29.82 in10.0 miWest (280°)9.2 mphPartly Cloudy
5:53 PM48.0 °F27.0 °F44 %29.84 in10.0 miWest (260°)4.6 mphClear
6:53 PM46.9 °F27.0 °F46 %29.85 in10.0 miWest (260°)4.6 mphClear
7:53 PM45.0 °F27.0 °F49 %29.86 in10.0 miSW (230°)4.6 mphClear
8:53 PM44.1 °F30.9 °F60 %29.88 in10.0 miWSW (240°)6.9 mphClear
9:53 PM42.1 °F30.9 °F65 %29.88 in10.0 miVariable4.6 mphClear
10:53 PM41.0 °F30.9 °F67 %29.88 in10.0 miSW (230°)4.6 mphClear
Hourly data recorded from KCPS, located miles away from St. Louis - Saint Louis University, Missouri







STORIES FROM OUR PARTNERS